STARLINK-32919, 63150

Orbit data source: Space-Track

STARLINK-32919, 63150 is a payload satellite owned by SpaceX/Seattle (US) in LEO that was launched on Mon, 03 Mar 2025 UTC via an FALCON 9 launch vehicle from the Air Force Eastern Test Range (AFETR). Payload-class satellites include a variety of spacecraft equipped with specific instruments for various scientific and technological missions. These include communications satellites like Starlink; space stations such as the ISS; scientific satellites like the Hubble; Earth observation satellites from companies like Planet Labs, Umbra, and HawkEye 360; GPS; miniature CubeSats for education and research; and military/defense satellites.

Loading next visibility...
Identifier
63150, 2025-043U
Orbit
LEO
Country
Flag of USUS
Related business
Manufacturer
SpaceX/Seattle
Mission
Operational Commercial Communications
Bus & Motor
STARLINK V2M, Unknown motor
Mass
730 kg wet, ~700 kg dry
Launch date (UTC)
2025-03-03 (1 year ago)
Launch vehicle
FALCON 9
Launch site
Air Force Eastern Test Range (AFETR)
Object type
Payload
Rocket body
Debris
Shape & HBR
Box + 2 Pan, 17.7 m
Radar Cross Section
33.884 m², Large (>1 m²)

Expand to show TLE details & history
Last TLE update: 13 hours ago

TLE from 13 hours ago
0 STARLINK-32919
1 63150U 25043U   26192.86618969  .00016598  00000-0  61113-3 0  9996
2 63150  43.0026  34.9364 0001128  20.9346 339.1552 15.27590405 76354
Epoch: 2026-07-11T20:47Z
TLE epoch observation values (Epoch: 2026-07-11T20:47:18.789Z)
Latitude
0.00001°
Longitude
153.33486°
Altitude
482.07 km
Speed
7.627 km/s
True Right ascension
02h 19m 44s
True Declination
0° 00' 00"
Sunlit
Object was in daylight at epoch
Visualization orbit readout
Latitude
Unknown
Longitude
Unknown
Altitude
Unknown
Speed
Unknown
Apparent Right ascension
Unknown
Apparent Declination
Unknown
Sunlit
N/A
Visualization observer readout
Local Sidereal Time
21:58:37
Azimuth
Unknown
Elevation
Unknown
Doppler factor
Unknown
Orbital elements
Apogee altitude
485.737 km
Perigee altitude
484.189 km
Semi-major axis
6,863.1 km
Eccentricity
0.00011
Inclination
43.0026°
RAAN
34.9364°
Arg. of periapsis
20.9346°
True anomaly
339.1506°
Mean anomaly
339.1552°
Eccentric anomaly
339.1529°
Mean motion
3.81736 °/min
Orbital period
94.31 mins
BSTAR
0.00061113
Loading maneuver chart data...
Computing Atmospheric mass density...
Loading historical data...
Loading historical data...
Loading historical data...
Loading historical data...
Loading historical data...
Loading historical data...
Loading historical data...

Documentation

Showing up to 5 results
|